"Period start","avg(HW err(1)/warn(2) (#))","avg(Visibility (m))","avg(Weather code (#))","avg(Precip intensity (mm/h))","min(HW err(1)/warn(2) (#))","max(HW err(1)/warn(2) (#))","std(HW err(1)/warn(2) (#))","med(HW err(1)/warn(2) (#))","min(Visibility (m))","max(Visibility (m))","std(Visibility (m))","med(Visibility (m))","min(Weather code (#))","max(Weather code (#))","std(Weather code (#))","med(Weather code (#))","min(Precip intensity (mm/h))","max(Precip intensity (mm/h))","std(Precip intensity (mm/h))","med(Precip intensity (mm/h))"
2017-07-24 00:00:00,2,49328,0,0.00,2,2,0,2,47123,50000,1105,50000,0,0,0,0,0.00,0.00,0.00,0.00
2017-07-24 00:10:00,2,48845,0,0.00,2,2,0,2,44643,50000,1673,49596,0,0,0,0,0.00,0.00,0.00,0.00
2017-07-24 00:20:00,2,48848,0,0.00,2,2,0,2,41433,50000,2570,50000,0,0,0,0,0.00,0.00,0.00,0.00
2017-07-24 00:30:00,2,47723,0,0.00,2,2,0,2,36258,50000,4300,50000,0,0,0,0,0.00,0.00,0.00,0.00
2017-07-24 00:40:00,2,45880,0,0.00,2,2,0,2,31001,50000,6061,50000,0,0,0,0,0.00,0.00,0.00,0.00
2017-07-24 00:50:00,2,45011,0,0.00,2,2,0,2,35939,50000,5130,46045,0,0,0,0,0.00,0.00,0.00,0.00
2017-07-24 01:00:00,2,43585,0,0.00,2,2,0,2,33789,50000,6229,45404,0,0,0,0,0.00,0.00,0.00,0.00
2017-07-24 01:10:00,2,44619,0,0.00,2,2,0,2,36322,50000,4930,44252,0,0,0,0,0.00,0.00,0.00,0.00
2017-07-24 01:20:00,2,46162,0,0.00,0,2,1,2,37697,50000,4148,47844,0,0,0,0,0.00,0.00,0.00,0.00
2017-07-24 01:30:00,2,46646,0,0.00,2,2,0,2,39070,50000,4073,49193,0,0,0,0,0.00,0.00,0.00,0.00
2017-07-24 01:40:00,2,43245,0,0.00,0,2,1,2,33264,50000,5284,43689,0,0,0,0,0.00,0.00,0.00,0.00
2017-07-24 01:50:00,0,39940,0,0.00,0,2,1,0,28149,50000,6131,41944,0,0,0,0,0.00,0.00,0.00,0.00
2017-07-24 02:00:00,1,37098,0,0.00,0,2,1,1,29648,50000,6200,36580,0,0,0,0,0.00,0.00,0.00,0.00
2017-07-24 02:10:00,0,35675,0,0.00,0,2,1,0,22807,50000,9979,33636,0,0,0,0,0.00,0.00,0.00,0.00
2017-07-24 02:20:00,0,39994,0,0.00,0,0,0,0,30591,50000,6419,39182,0,0,0,0,0.00,0.00,0.00,0.00
2017-07-24 02:30:00,0,45015,0,0.00,0,0,0,0,37466,50000,4256,45778,0,0,0,0,0.00,0.00,0.00,0.00
2017-07-24 02:40:00,0,31310,0,0.00,0,0,0,0,21932,47213,8926,27120,0,0,0,0,0.00,0.00,0.00,0.00
2017-07-24 02:50:00,0,41380,0,0.00,0,0,0,0,24800,50000,7726,40450,0,0,0,0,0.00,0.00,0.00,0.00
2017-07-24 03:00:00,1,40363,0,0.00,0,2,1,0,28508,50000,7571,38486,0,0,0,0,0.00,0.00,0.00,0.00
2017-07-24 03:10:00,1,45694,0,0.00,0,2,1,1,32293,50000,5218,46973,0,0,0,0,0.00,0.00,0.00,0.00
2017-07-24 03:20:00,0,42476,0,0.00,0,0,0,0,25330,50000,8029,44616,0,0,0,0,0.00,0.00,0.00,0.00
2017-07-24 03:30:00,0,45582,0,0.00,0,0,0,0,38043,50000,3400,45692,0,0,0,0,0.00,0.00,0.00,0.00
2017-07-24 03:40:00,0,47520,0,0.00,0,0,0,0,39557,50000,3508,50000,0,0,0,0,0.00,0.00,0.00,0.00
2017-07-24 03:50:00,0,47134,0,0.00,0,2,1,0,33066,50000,5207,50000,0,0,0,0,0.00,0.00,0.00,0.00
2017-07-24 04:00:00,1,42805,0,0.00,0,2,1,0,26291,50000,7964,45846,0,0,0,0,0.00,0.00,0.00,0.00
2017-07-24 04:10:00,0,49140,0,0.00,0,0,0,0,43738,50000,1931,50000,0,0,0,0,0.00,0.00,0.00,0.00
2017-07-24 04:20:00,0,50000,0,0.00,0,0,0,0,50000,50000,0,50000,0,0,0,0,0.00,0.00,0.00,0.00
2017-07-24 04:30:00,0,49168,0,0.00,0,0,0,0,44916,50000,1567,50000,0,0,0,0,0.00,0.00,0.00,0.00
2017-07-24 04:40:00,0,49126,0,0.00,0,0,0,0,45176,50000,1760,50000,0,0,0,0,0.00,0.00,0.00,0.00
2017-07-24 04:50:00,0,48922,0,0.00,0,0,0,0,43512,50000,2148,50000,0,0,0,0,0.00,0.00,0.00,0.00
2017-07-24 05:00:00,0,46347,0,0.00,0,0,0,0,35566,50000,4846,48390,0,0,0,0,0.00,0.00,0.00,0.00
2017-07-24 05:10:00,0,48337,0,0.00,0,0,0,0,38831,50000,3365,50000,0,0,0,0,0.00,0.00,0.00,0.00
2017-07-24 05:20:00,0,49898,0,0.00,0,0,0,0,49311,50000,219,50000,0,0,0,0,0.00,0.00,0.00,0.00
2017-07-24 05:30:00,0,49770,0,0.00,0,0,0,0,48612,50000,473,50000,0,0,0,0,0.00,0.00,0.00,0.00
2017-07-24 05:40:00,0,49248,0,0.00,0,0,0,0,44067,50000,1790,50000,0,0,0,0,0.00,0.00,0.00,0.00
2017-07-24 05:50:00,0,47259,0,0.00,0,0,0,0,41760,50000,3075,48734,0,0,0,0,0.00,0.00,0.00,0.00
2017-07-24 06:00:00,0,48146,0,0.00,0,0,0,0,39186,50000,3405,50000,0,0,0,0,0.00,0.00,0.00,0.00
2017-07-24 06:10:00,0,49986,0,0.00,0,0,0,0,49862,50000,41,50000,0,0,0,0,0.00,0.00,0.00,0.00
2017-07-24 06:20:00,0,49240,0,0.00,0,0,0,0,44025,50000,1790,50000,0,0,0,0,0.00,0.00,0.00,0.00
2017-07-24 06:30:00,0,49988,0,0.00,0,0,0,0,49882,50000,35,50000,0,0,0,0,0.00,0.00,0.00,0.00
2017-07-24 06:40:00,0,50000,0,0.00,0,0,0,0,50000,50000,0,50000,0,0,0,0,0.00,0.00,0.00,0.00
2017-07-24 06:50:00,0,48623,0,0.00,0,0,0,0,44586,50000,1973,50000,0,0,0,0,0.00,0.00,0.00,0.00
2017-07-24 07:00:00,0,49603,0,0.00,0,0,0,0,47770,50000,743,50000,0,0,0,0,0.00,0.00,0.00,0.00
2017-07-24 07:10:00,0,49480,0,0.00,0,0,0,0,47147,50000,951,50000,0,0,0,0,0.00,0.00,0.00,0.00
2017-07-24 07:20:00,0,49619,0,0.00,0,0,0,0,46354,50000,1089,50000,0,0,0,0,0.00,0.00,0.00,0.00
2017-07-24 07:30:00,0,49268,0,0.00,0,0,0,0,45824,50000,1482,50000,0,0,0,0,0.00,0.00,0.00,0.00
2017-07-24 07:40:00,0,49395,0,0.00,0,0,0,0,46764,50000,1140,50000,0,0,0,0,0.00,0.00,0.00,0.00
2017-07-24 07:50:00,0,49896,0,0.00,0,0,0,0,48964,50000,311,50000,0,0,0,0,0.00,0.00,0.00,0.00
2017-07-24 08:00:00,0,49345,0,0.00,0,0,0,0,45510,50000,1358,50000,0,0,0,0,0.00,0.00,0.00,0.00
2017-07-24 08:10:00,0,49560,0,0.00,0,0,0,0,47315,50000,867,50000,0,0,0,0,0.00,0.00,0.00,0.00
2017-07-24 08:20:00,0,49526,0,0.00,0,0,0,0,46359,50000,1105,50000,0,0,0,0,0.00,0.00,0.00,0.00
2017-07-24 08:30:00,0,46212,0,0.00,0,0,0,0,36119,50000,4894,49197,0,0,0,0,0.00,0.00,0.00,0.00
2017-07-24 08:40:00,0,45754,0,0.00,0,0,0,0,34187,50000,4981,47439,0,0,0,0,0.00,0.00,0.00,0.00
2017-07-24 08:50:00,0,49086,0,0.00,0,0,0,0,46910,50000,1059,49542,0,0,0,0,0.00,0.00,0.00,0.00
2017-07-24 09:00:00,0,49758,0,0.00,0,0,0,0,47735,50000,675,50000,0,0,0,0,0.00,0.00,0.00,0.00
2017-07-24 09:10:00,0,49565,0,0.00,0,0,0,0,45648,50000,1306,50000,0,0,0,0,0.00,0.00,0.00,0.00
2017-07-24 09:20:00,0,49515,0,0.00,0,0,0,0,45567,50000,1322,50000,0,0,0,0,0.00,0.00,0.00,0.00
2017-07-24 09:30:00,0,50000,0,0.00,0,0,0,0,50000,50000,0,50000,0,0,0,0,0.00,0.00,0.00,0.00
2017-07-24 09:40:00,0,49989,0,0.00,0,0,0,0,49886,50000,34,50000,0,0,0,0,0.00,0.00,0.00,0.00
2017-07-24 09:50:00,0,49928,0,0.00,0,0,0,0,49279,50000,216,50000,0,0,0,0,0.00,0.00,0.00,0.00
2017-07-24 10:00:00,0,50000,0,0.00,0,0,0,0,50000,50000,0,50000,0,0,0,0,0.00,0.00,0.00,0.00
2017-07-24 10:10:00,0,48736,0,0.00,0,0,0,0,45682,50000,1643,50000,0,0,0,0,0.00,0.00,0.00,0.00
2017-07-24 10:20:00,0,49245,0,0.00,0,0,0,0,44720,50000,1653,50000,0,0,0,0,0.00,0.00,0.00,0.00
2017-07-24 10:30:00,0,49481,0,0.00,0,0,0,0,47238,50000,1040,50000,0,0,0,0,0.00,0.00,0.00,0.00
2017-07-24 10:40:00,0,50000,0,0.00,0,0,0,0,50000,50000,0,50000,0,0,0,0,0.00,0.00,0.00,0.00
2017-07-24 10:50:00,0,49902,0,0.00,0,0,0,0,49019,50000,294,50000,0,0,0,0,0.00,0.00,0.00,0.00
2017-07-24 11:00:00,0,48604,0,0.00,0,0,0,0,42593,50000,2446,50000,0,0,0,0,0.00,0.00,0.00,0.00
2017-07-24 11:10:00,0,49850,0,0.00,0,0,0,0,48496,50000,451,50000,0,0,0,0,0.00,0.00,0.00,0.00
2017-07-24 11:20:00,0,49655,0,0.00,0,0,0,0,46547,50000,1036,50000,0,0,0,0,0.00,0.00,0.00,0.00
2017-07-24 11:30:00,0,50000,0,0.00,0,0,0,0,50000,50000,0,50000,0,0,0,0,0.00,0.00,0.00,0.00
2017-07-24 11:40:00,0,49862,0,0.00,0,0,0,0,48617,50000,415,50000,0,0,0,0,0.00,0.00,0.00,0.00
2017-07-24 11:50:00,0,49255,0,0.00,0,0,0,0,45325,50000,1549,50000,0,0,0,0,0.00,0.00,0.00,0.00
2017-07-24 12:00:00,0,49600,0,0.00,0,0,0,0,48222,50000,649,50000,0,0,0,0,0.00,0.00,0.00,0.00
2017-07-24 12:10:00,0,49477,0,0.00,0,0,0,0,47184,50000,1050,50000,0,0,0,0,0.00,0.00,0.00,0.00
2017-07-24 12:20:00,0,49606,0,0.00,0,0,0,0,46062,50000,1181,50000,0,0,0,0,0.00,0.00,0.00,0.00
2017-07-24 12:30:00,0,49995,0,0.00,0,0,0,0,49946,50000,16,50000,0,0,0,0,0.00,0.00,0.00,0.00
2017-07-24 12:40:00,0,49987,0,0.00,0,0,0,0,49869,50000,39,50000,0,0,0,0,0.00,0.00,0.00,0.00
2017-07-24 12:50:00,0,49918,0,0.00,0,0,0,0,49178,50000,247,50000,0,0,0,0,0.00,0.00,0.00,0.00
2017-07-24 13:00:00,0,50000,0,0.00,0,0,0,0,50000,50000,0,50000,0,0,0,0,0.00,0.00,0.00,0.00
2017-07-24 13:10:00,0,50000,0,0.00,0,0,0,0,50000,50000,0,50000,0,0,0,0,0.00,0.00,0.00,0.00
2017-07-24 13:20:00,0,50000,0,0.00,0,0,0,0,50000,50000,0,50000,0,0,0,0,0.00,0.00,0.00,0.00
2017-07-24 13:30:00,0,50000,0,0.00,0,0,0,0,50000,50000,0,50000,0,0,0,0,0.00,0.00,0.00,0.00
2017-07-24 13:40:00,0,50000,0,0.00,0,0,0,0,50000,50000,0,50000,0,0,0,0,0.00,0.00,0.00,0.00
2017-07-24 13:50:00,0,50000,0,0.00,0,0,0,0,50000,50000,0,50000,0,0,0,0,0.00,0.00,0.00,0.00
2017-07-24 14:00:00,0,50000,0,0.00,0,0,0,0,50000,50000,0,50000,0,0,0,0,0.00,0.00,0.00,0.00
2017-07-24 14:10:00,0,50000,0,0.00,0,0,0,0,50000,50000,0,50000,0,0,0,0,0.00,0.00,0.00,0.00
2017-07-24 14:20:00,0,50000,0,0.00,0,0,0,0,50000,50000,0,50000,0,0,0,0,0.00,0.00,0.00,0.00
2017-07-24 14:30:00,0,50000,0,0.00,0,0,0,0,50000,50000,0,50000,0,0,0,0,0.00,0.00,0.00,0.00
2017-07-24 14:40:00,0,50000,0,0.00,0,0,0,0,50000,50000,0,50000,0,0,0,0,0.00,0.00,0.00,0.00
2017-07-24 14:50:00,0,50000,0,0.00,0,0,0,0,50000,50000,0,50000,0,0,0,0,0.00,0.00,0.00,0.00
2017-07-24 15:00:00,0,50000,0,0.00,0,0,0,0,50000,50000,0,50000,0,0,0,0,0.00,0.00,0.00,0.00
2017-07-24 15:10:00,0,50000,0,0.00,0,0,0,0,50000,50000,0,50000,0,0,0,0,0.00,0.00,0.00,0.00
2017-07-24 15:20:00,0,50000,0,0.00,0,0,0,0,50000,50000,0,50000,0,0,0,0,0.00,0.00,0.00,0.00
2017-07-24 15:30:00,0,50000,0,0.00,0,0,0,0,50000,50000,0,50000,0,0,0,0,0.00,0.00,0.00,0.00
2017-07-24 15:40:00,0,50000,0,0.00,0,0,0,0,50000,50000,0,50000,0,0,0,0,0.00,0.00,0.00,0.00
2017-07-24 15:50:00,0,50000,0,0.00,0,0,0,0,50000,50000,0,50000,0,0,0,0,0.00,0.00,0.00,0.00
2017-07-24 16:00:00,0,50000,0,0.00,0,0,0,0,50000,50000,0,50000,0,0,0,0,0.00,0.00,0.00,0.00
2017-07-24 16:10:00,0,50000,0,0.00,0,0,0,0,50000,50000,0,50000,0,0,0,0,0.00,0.00,0.00,0.00
2017-07-24 16:20:00,0,50000,0,0.00,0,0,0,0,50000,50000,0,50000,0,0,0,0,0.00,0.00,0.00,0.00
2017-07-24 16:30:00,0,50000,0,0.00,0,0,0,0,50000,50000,0,50000,0,0,0,0,0.00,0.00,0.00,0.00
2017-07-24 16:40:00,0,49748,0,0.00,0,0,0,0,47481,50000,756,50000,0,0,0,0,0.00,0.00,0.00,0.00
2017-07-24 16:50:00,0,50000,0,0.00,0,0,0,0,50000,50000,0,50000,0,0,0,0,0.00,0.00,0.00,0.00
2017-07-24 17:00:00,0,50000,0,0.00,0,0,0,0,50000,50000,0,50000,0,0,0,0,0.00,0.00,0.00,0.00
2017-07-24 17:10:00,0,50000,0,0.00,0,0,0,0,50000,50000,0,50000,0,0,0,0,0.00,0.00,0.00,0.00
2017-07-24 17:20:00,0,50000,0,0.00,0,0,0,0,50000,50000,0,50000,0,0,0,0,0.00,0.00,0.00,0.00
2017-07-24 17:30:00,0,50000,0,0.00,0,0,0,0,50000,50000,0,50000,0,0,0,0,0.00,0.00,0.00,0.00
2017-07-24 17:40:00,0,50000,0,0.00,0,0,0,0,50000,50000,0,50000,0,0,0,0,0.00,0.00,0.00,0.00
2017-07-24 17:50:00,0,50000,0,0.00,0,0,0,0,50000,50000,0,50000,0,0,0,0,0.00,0.00,0.00,0.00
2017-07-24 18:00:00,0,50000,0,0.00,0,0,0,0,50000,50000,0,50000,0,0,0,0,0.00,0.00,0.00,0.00
2017-07-24 18:10:00,0,49967,0,0.00,0,0,0,0,49668,50000,100,50000,0,0,0,0,0.00,0.00,0.00,0.00
2017-07-24 18:20:00,0,50000,0,0.00,0,0,0,0,50000,50000,0,50000,0,0,0,0,0.00,0.00,0.00,0.00
2017-07-24 18:30:00,0,50000,0,0.00,0,0,0,0,50000,50000,0,50000,0,0,0,0,0.00,0.00,0.00,0.00
2017-07-24 18:40:00,0,50000,0,0.00,0,0,0,0,50000,50000,0,50000,0,0,0,0,0.00,0.00,0.00,0.00
2017-07-24 18:50:00,0,50000,0,0.00,0,0,0,0,50000,50000,0,50000,0,0,0,0,0.00,0.00,0.00,0.00
2017-07-24 19:00:00,0,50000,0,0.00,0,0,0,0,50000,50000,0,50000,0,0,0,0,0.00,0.00,0.00,0.00
2017-07-24 19:10:00,0,50000,0,0.00,0,0,0,0,50000,50000,0,50000,0,0,0,0,0.00,0.00,0.00,0.00
2017-07-24 19:20:00,0,50000,0,0.00,0,0,0,0,50000,50000,0,50000,0,0,0,0,0.00,0.00,0.00,0.00
2017-07-24 19:30:00,0,50000,0,0.00,0,0,0,0,50000,50000,0,50000,0,0,0,0,0.00,0.00,0.00,0.00
2017-07-24 19:40:00,0,49785,0,0.00,0,0,0,0,48920,50000,430,50000,0,0,0,0,0.00,0.00,0.00,0.00
2017-07-24 19:50:00,0,49976,0,0.00,0,0,0,0,49765,50000,70,50000,0,0,0,0,0.00,0.00,0.00,0.00
2017-07-24 20:00:00,0,50000,0,0.00,0,0,0,0,50000,50000,0,50000,0,0,0,0,0.00,0.00,0.00,0.00
2017-07-24 20:10:00,0,50000,0,0.00,0,0,0,0,50000,50000,0,50000,0,0,0,0,0.00,0.00,0.00,0.00
2017-07-24 20:20:00,0,49737,0,0.00,0,0,0,0,47366,50000,790,50000,0,0,0,0,0.00,0.00,0.00,0.00
2017-07-24 20:30:00,0,49499,0,0.00,0,0,0,0,45521,50000,1335,50000,0,0,0,0,0.00,0.00,0.00,0.00
2017-07-24 20:40:00,0,50000,0,0.00,0,0,0,0,50000,50000,0,50000,0,0,0,0,0.00,0.00,0.00,0.00
2017-07-24 20:50:00,0,49150,0,0.00,0,0,0,0,44656,50000,1621,50000,0,0,0,0,0.00,0.00,0.00,0.00
2017-07-24 21:00:00,0,48556,0,0.00,0,0,0,0,44561,50000,1676,49032,0,0,0,0,0.00,0.00,0.00,0.00
2017-07-24 21:10:00,0,49564,0,0.00,0,0,0,0,46272,50000,1113,50000,0,0,0,0,0.00,0.00,0.00,0.00
2017-07-24 21:20:00,0,50000,0,0.00,0,0,0,0,50000,50000,0,50000,0,0,0,0,0.00,0.00,0.00,0.00
2017-07-24 21:30:00,0,49453,0,0.00,0,0,0,0,47840,50000,823,50000,0,0,0,0,0.00,0.00,0.00,0.00
2017-07-24 21:40:00,0,48035,0,0.00,0,0,0,0,35099,50000,4428,50000,0,0,0,0,0.00,0.00,0.00,0.00
2017-07-24 21:50:00,0,46559,0,0.00,0,0,0,0,35775,50000,4440,48376,0,0,0,0,0.00,0.00,0.00,0.00
2017-07-24 22:00:00,0,46342,0,0.00,0,0,0,0,38310,50000,4516,49482,0,0,0,0,0.00,0.00,0.00,0.00
2017-07-24 22:10:00,0,49328,0,0.00,0,0,0,0,45433,50000,1448,50000,0,0,0,0,0.00,0.00,0.00,0.00
2017-07-24 22:20:00,0,46092,0,0.00,0,0,0,0,34138,50000,5122,49298,0,0,0,0,0.00,0.00,0.00,0.00
2017-07-24 22:30:00,0,46065,0,0.00,0,2,1,0,40057,50000,3815,46888,0,0,0,0,0.00,0.00,0.00,0.00
2017-07-24 22:40:00,0,43214,0,0.00,0,2,1,0,31341,50000,7055,46170,0,0,0,0,0.00,0.00,0.00,0.00
2017-07-24 22:50:00,0,39519,0,0.00,0,0,0,0,24058,50000,8757,39493,0,0,0,0,0.00,0.00,0.00,0.00
2017-07-24 23:00:00,0,43125,0,0.00,0,0,0,0,34539,50000,5141,43549,0,0,0,0,0.00,0.00,0.00,0.00
2017-07-24 23:10:00,0,46343,0,0.00,0,0,0,0,30970,50000,5655,49442,0,0,0,0,0.00,0.00,0.00,0.00
2017-07-24 23:20:00,1,42470,0,0.00,0,2,1,1,27339,50000,7603,44846,0,0,0,0,0.00,0.00,0.00,0.00
2017-07-24 23:30:00,1,39670,0,0.00,0,2,1,2,30447,48988,5547,40670,0,0,0,0,0.00,0.00,0.00,0.00
2017-07-24 23:40:00,0,41511,0,0.00,0,2,1,0,29940,50000,6646,42054,0,0,0,0,0.00,0.00,0.00,0.00
2017-07-24 23:50:00,1,36784,0,0.00,0,2,1,0,24626,50000,9109,37900,0,0,0,0,0.00,0.00,0.00,0.00
